Probability
29 29 26 22 24 25 24 22 22 24 24 23 22 20 18 17 15 13 10 7 4 3 2 1 0 0 0 0 0 0 0 0 0 0 0 0 0 0 0 0 0 0 0
23 22 20 19 21 21 18 15 15 16 17 16 15 14 12 10 10 8 6 5 4 4 3 1 0 0 0 0 0 0 0 0 0 0 0 0 0 0 0 0 0 0 0
14 12 11 13 15 13 10 8 8 7 7 6 6 6 4 4 4 3 2 2 3 4 3 2 0 0 0 0 0 0 0 0 0 0 0 0 0 0 0 0 0 0 0
6 5 4 6 8 7 6 4 3 2 2 1 2 2 1 1 1 1 1 1 2 3 3 2 1 0 0 0 0 0 0 0 0 0 0 0 0 0 0 0 0 0 0
2 1 1 2 3 3 3 2 1 1 1 1 1 2 1 0 0 0 0 1 1 2 2 2 1 0 0 0 0 0 0 0 0 0 0 0 0 0 0 0 0 0 0
1 0 0 1 1 1 1 1 0 0 1 2 2 2 2 1 0 0 0 0 0 1 1 1 0 0 0 0 0 0 0 0 0 0 0 0 0 0 0 0 0 0 0
0 0 0 0 0 0 0 0 0 0 1 1 1 1 1 1 0 0 0 0 0 0 0 0 0 0 0 0 0 0 0 0 1 1 0 0 0 0 0 0 0 0 0
0 0 0 0 0 0 0 0 0 0 0 0 0 0 0 0 0 0 0 0 0 0 0 0 0 0 0 0 0 0 0 0 1 1 0 0 0 0 0 0 0 0 0
0 0 0 0 0 0 0 0 0 0 0 0 0 0 0 0 0 0 0 0 0 0 0 0 0 0 0 0 0 0 0 0 1 1 0 0 0 0 0 0 0 0 0
0 0 0 0 0 0 0 0 0 0 0 0 0 0 0 0 0 0 0 0 0 0 0 0 0 0 0 0 0 0 0 0 0 0 0 0 0 0 0 0 0 0 0
0 0 0 0 0 0 0 0 0 0 0 0 0 0 0 0 0 0 0 0 0 0 0 0 0 0 0 0 0 0 0 0 0 0 0 0 0 0 0 0 0 0 0
0 0 0 0 0 0 0 0 0 0 0 0 0 0 0 0 0 0 0 0 0 0 0 0 0 0 0 0 0 0 0 0 0 0 0 0 0 0 0 0 0 0 0
0 0 0 0 0 0 0 0 0 0 0 0 0 0 0 0 0 0 0 0 0 0 0 0 0 0 0 0 0 0 0 0 0 0 0 0 0 0 0 0 0 0 0
0 0 0 0 0 0 0 0 0 0 0 0 0 0 0 0 0 0 0 0 0 0 0 0 0 0 0 0 0 0 0 0 0 0 0 0 0 0 0 0 0 0 0
0 0 0 0 0 0 0 0 0 0 0 0 0 0 0 0 0 0 0 0 0 0 0 0 0 0 0 0 0 0 0 0 0 0 0 0 0 0 0 0 0 0 0
0 0 0 0 0 0 0 0 0 0 0 0 0 0 0 0 0 0 0 0 0 0 0 0 0 0 0 0 0 0 0 0 0 0 0 0 0 0 0 0 0 0 0
0 0 0 0 0 0 0 0 0 0 0 0 0 0 0 0 0 0 0 0 0 0 0 0 0 0 0 0 0 0 0 0 0 0 0 0 0 0 0 0 0 0 0
0 0 0 0 0 0 0 0 0 0 0 0 0 0 0 0 0 0 0 0 0 0 0 0 0 0 0 0 0 0 0 0 0 0 0 0 0 0 0 0 0 0 0
0 0 0 0 0 0 0 0 0 0 0 0 0 0 0 0 0 0 0 0 0 0 0 0 0 0 0 0 0 0 0 0 0 0 0 0 0 0 0 0 0 0 0
0 0 0 0 0 0 0 0 0 0 0 0 0 0 0 0 0 0 0 0 0 0 0 0 0 0 0 0 0 0 0 0 0 0 0 0 0 0 0 0 0 0 0
0 0 0 0 0 0 0 0 0 0 0 0 0 0 0 0 0 0 0 0 0 0 0 0 0 0 0 0 0 0 0 0 0 0 0 0 0 0 0 0 0 0 0
0 0 0 0 0 0 0 0 0 0 0 0 0 0 0 0 0 0 0 0 0 0 0 0 0 0 0 0 0 0 0 0 0 0 0 0 0 0 0 0 0 0 0
0 0 0 0 0 0 0 0 0 0 0 0 0 0 0 0 0 0 0 0 0 0 0 0 0 0 0 0 0 0 0 0 0 0 0 0 0 0 0 0 0 0 0
0 0 0 0 0 0 0 0 0 0 0 0 0 0 0 0 0 0 0 0 0 0 0 0 0 0 0 0 0 0 0 0 0 0 0 0 0 0 0 0 0 0 0
0 0 0 0 0 0 0 0 0 0 0 0 0 0 0 0 0 0 0 0 0 0 0 0 0 0 0 0 0 0 0 0 0 0 0 0 0 0 0 0 0 0 0
0 0 0 0 0 0 0 0 0 0 0 0 0 0 0 0 0 0 0 0 0 0 0 0 0 0 0 0 0 0 0 0 0 0 0 0 0 0 0 0 0 0 0
Wind_Speed
7 8 8 8 7 6 5 4 3 1 2 1 0 1 1 2 2 3 5 5 5 5 5 4 3 3 3 3 3 2 2 1 1 0 2 2 2 3 3 3 3 4 4
9 10 9 8 7 6 5 6 5 4 3 2 1 0 1 0 0 1 2 2 3 4 4 4 3 3 3 3 3 3 2 1 1 2 0 2 3 2 1 1 2 2 2
7 8 8 8 8 7 6 6 6 5 5 3 1 1 2 2 1 1 1 1 1 2 2 3 3 3 3 3 4 4 4 3 2 2 2 2 2 2 2 2 1 1 1
6 5 6 6 6 5 5 5 5 4 4 4 3 2 1 1 1 1 1 2 2 1 0 1 2 3 3 4 4 4 3 4 3 2 2 2 2 2 2 2 2 2 1
5 5 4 4 4 4 4 3 3 4 3 3 4 4 1 0 1 1 2 2 2 2 2 1 1 2 3 3 4 4 5 4 4 3 2 2 1 2 2 3 3 2 2
4 4 4 3 3 3 2 2 2 2 1 2 2 3 3 2 1 0 1 1 1 1 2 1 1 2 2 3 4 4 5 5 5 4 3 4 3 4 4 4 3 3 3
3 3 4 3 3 4 3 2 2 2 2 1 1 2 2 2 2 2 1 1 1 1 2 1 2 2 2 3 3 4 5 5 6 6 5 5 4 3 3 3 3 3 2
4 4 5 4 5 5 4 4 4 4 4 3 3 3 3 2 2 3 2 2 2 3 3 2 3 3 3 3 3 3 5 5 6 7 6 5 5 5 4 4 3 3 3
5 5 6 5 6 6 5 5 5 6 6 5 5 5 4 4 4 4 4 3 3 3 3 3 3 3 3 3 3 3 4 4 6 6 6 6 5 5 6 5 5 4 4
5 6 6 5 6 5 6 6 6 7 7 6 6 5 6 6 6 5 6 5 5 4 4 4 4 4 4 4 3 4 4 5 5 5 6 6 5 5 6 6 6 6 5
6 6 6 6 6 6 6 6 7 7 7 7 7 6 7 6 6 6 7 7 6 6 6 6 5 5 5 4 4 5 5 6 6 5 6 7 6 6 6 6 6 6 6
7 7 7 7 6 7 7 7 7 7 8 8 7 8 8 7 7 8 8 7 7 7 7 6 6 6 6 5 5 6 6 6 6 7 6 7 6 7 6 6 7 7 7
8 7 7 8 8 8 8 8 8 8 9 8 8 8 8 8 9 9 9 8 8 8 7 7 7 7 7 6 6 7 6 6 7 7 7 7 7 8 6 7 7 6 7
9 8 8 9 9 10 10 10 10 10 9 8 8 9 9 9 9 9 8 8 8 8 8 8 8 8 8 7 7 6 6 6 7 7 7 8 8 9 8 7 8 7 7
10 10 10 9 10 10 10 10 11 10 10 9 9 10 10 9 9 9 9 9 8 10 9 8 8 8 7 7 8 7 7 7 7 7 7 8 10 11 9 7 7 7 7
11 11 11 11 11 11 11 11 11 11 10 10 11 11 9 9 9 9 9 8 8 8 8 8 9 9 8 10 12 9 7 7 7 8 8 8 10 12 13 13 12 11 10
11 12 12 12 12 12 11 11 12 11 11 11 11 11 10 9 9 9 8 8 8 7 7 8 9 9 10 13 13 13 8 7 8 8 8 7 7 9 8 10 12 12 14
11 12 12 12 12 12 12 11 12 12 12 11 12 11 10 10 9 8 8 8 7 7 7 8 9 8 10 13 13 13 8 7 8 9 9 8 8 7 7 7 7 8 9
12 12 12 13 13 13 13 12 12 12 12 12 11 11 10 9 9 8 8 7 6 7 7 7 8 8 9 12 13 11 6 6 8 8 8 8 8 9 9 8 8 7 6
11 12 12 13 13 13 13 13 14 13 13 12 12 11 9 9 9 8 8 7 6 7 7 7 7 8 9 11 12 10 5 6 6 6 6 9 9 9 9 8 8 9 7
13 12 12 13 13 13 13 13 13 13 13 12 11 10 9 9 9 8 7 7 6 6 6 7 7 7 8 9 11 10 6 6 6 5 5 5 8 9 9 9 8 9 6
13 13 12 13 13 12 12 14 13 13 12 11 10 10 9 8 8 6 6 6 5 5 5 5 5 4 5 6 8 9 10 9 7 6 5 5 7 8 9 8 8 9 7
12 12 13 14 13 12 12 13 13 12 11 10 10 9 9 7 6 6 6 5 4 4 3 3 4 4 3 4 7 7 8 9 6 5 6 6 7 7 6 7 9 9 6
12 12 13 14 14 13 12 11 12 11 11 11 10 8 7 6 5 4 4 3 3 3 3 3 3 3 2 2 2 2 2 4 4 3 4 5 5 4 4 4 5 5 5
11 11 13 14 15 14 13 12 11 11 11 10 9 8 6 5 5 4 3 3 3 3 3 3 3 3 3 2 3 3 2 2 2 2 1 2 2 3 3 3 3 4 5
12 13 14 14 14 14 13 12 11 11 10 8 7 5 5 4 3 3 2 2 3 3 5 5 4 3 3 2 2 3 2 2 3 2 2 2 2 3 3 3 4 4 5
Wind_Direction
36 40 39 36 37 31 34 44 58 53 111 109 85 312 223 200 209 220 216 211 211 199 186 191 187 183 186 200 194 175 189 211 177 100 320 312 283 263 255 250 244 246 246
35 36 40 40 38 39 39 46 48 37 48 74 42 303 299 340 290 276 254 234 218 203 194 190 191 189 188 199 200 183 173 194 165 154 113 338 339 331 330 293 238 247 250
39 31 36 44 44 38 34 50 56 52 46 57 55 23 19 357 359 309 296 297 252 207 196 194 188 188 192 205 207 191 182 193 197 183 163 166 238 303 324 334 325 306 253
32 29 29 32 38 33 34 44 58 59 54 73 80 73 82 270 298 300 322 342 358 355 76 201 197 200 200 208 213 200 192 180 194 199 204 195 178 189 304 314 315 313 289
10 12 13 17 16 17 17 26 37 44 41 68 93 101 101 174 279 328 357 3 0 6 6 339 229 219 214 215 214 200 197 194 192 189 181 185 206 201 209 271 301 314 293
347 343 341 345 338 334 341 356 10 12 4 65 95 124 140 155 150 355 355 358 345 351 349 333 295 254 238 230 224 213 209 207 205 203 192 182 185 195 197 228 256 282 285
318 311 305 301 293 290 290 297 299 296 292 265 183 183 179 175 179 197 204 205 244 262 281 301 289 274 256 243 224 216 220 211 210 210 212 209 211 192 188 206 235 258 281
306 294 284 280 277 275 274 272 267 264 261 246 238 229 212 206 215 213 211 222 223 231 241 262 276 280 277 267 239 228 228 219 220 220 215 216 217 208 202 197 198 240 266
309 303 298 292 286 283 276 265 263 264 261 253 250 249 236 223 227 230 225 228 233 239 238 245 256 270 275 271 253 239 237 227 226 226 222 222 219 212 214 209 201 202 237
316 314 310 306 297 288 287 287 273 267 268 264 253 249 242 236 233 230 232 232 236 238 244 249 250 257 265 263 249 244 240 234 235 228 225 227 222 217 213 212 212 212 219
315 311 309 305 297 293 286 281 277 272 271 266 261 260 256 249 242 239 240 237 238 236 236 239 241 247 253 255 247 246 241 236 238 235 231 233 224 219 216 212 211 213 213
302 299 302 303 300 295 289 280 273 268 266 265 263 259 258 255 247 243 243 237 236 237 235 235 238 241 244 243 242 250 249 241 242 240 236 240 232 225 220 215 216 215 211
303 304 307 306 300 295 289 283 278 272 270 266 261 260 257 252 249 248 246 241 237 238 236 229 233 238 240 240 240 240 245 246 245 243 239 242 235 232 225 220 219 218 215
300 301 300 299 296 294 290 287 284 279 276 272 266 262 258 251 248 247 247 245 240 238 237 232 230 233 236 238 240 238 241 245 248 247 244 244 237 234 230 226 222 216 214
303 301 298 298 297 296 294 292 290 288 284 280 274 267 265 261 256 252 249 246 241 239 234 232 232 231 230 233 233 232 237 239 249 253 250 247 244 239 232 227 218 210 212
302 302 302 302 300 298 297 296 293 291 288 283 278 274 269 267 262 257 253 249 246 243 237 232 232 232 232 233 231 227 231 237 244 253 256 255 254 249 238 232 222 211 209
303 303 303 300 299 297 295 293 291 291 289 284 282 280 276 273 267 264 259 249 246 243 238 237 234 233 237 239 240 237 230 235 241 246 252 257 251 242 240 234 228 222 218
302 303 302 302 299 297 297 295 297 296 291 287 282 278 273 270 268 264 259 253 245 242 241 239 234 231 240 240 240 243 238 238 244 245 244 247 252 242 231 227 225 224 220
301 301 301 303 303 302 302 302 301 298 294 291 288 284 277 272 270 266 262 258 251 248 242 238 232 231 243 243 242 237 232 238 245 246 243 241 247 240 224 221 223 224 225
303 304 307 308 307 305 305 304 303 301 297 294 291 286 278 274 272 268 266 262 251 248 246 243 236 231 239 244 242 231 223 236 243 244 240 238 241 235 218 217 217 218 218
306 308 310 311 309 309 310 308 305 302 299 297 294 289 281 275 272 268 265 261 255 250 245 248 246 239 240 247 244 230 216 225 233 237 240 237 232 229 221 216 220 215 198
313 314 314 312 311 312 313 311 308 306 305 302 296 291 285 280 281 270 268 262 254 250 245 247 255 250 244 242 245 236 227 220 224 234 239 239 234 232 223 218 214 201 188
313 315 315 315 316 316 316 315 314 313 311 308 303 297 292 285 279 273 270 266 252 241 241 236 247 257 249 245 243 241 235 224 221 234 236 237 236 231 224 216 203 191 188
316 317 319 319 320 320 320 317 316 317 314 311 309 305 299 293 288 276 262 256 244 234 234 234 241 251 253 244 229 220 218 217 221 233 239 233 226 215 200 188 194 195 182
317 319 321 320 319 320 321 322 321 319 315 311 310 308 302 296 293 281 260 250 242 232 227 231 229 229 243 240 211 195 200 198 196 191 216 213 199 191 183 182 184 173 163
320 322 323 321 321 324 323 323 324 322 319 315 315 313 310 307 302 300 305 277 256 262 245 238 229 231 232 248 213 204 207 193 182 184 206 201 202 193 176 165 159 157 156